Volver al catálogo

COSMOS 1367 DEB

ActivoHEO
NORAD 48266·DEBRIS·🇷🇺 Russia

Lanzado May 20, 1982 desde Plesetsk Cosmodrome

Loading…

Próximos Pases (próximas 24 horas)

TLE

ActualizadoSource: Space-Track

Época: Sep 12, 2026, 08:22 UTC

1 48266U 82045E   26255.34881296 -.00001064  00000-0 -44897-1 0  9992
2 48266  64.4692  39.4082 7178315  12.4313 358.3502  2.06316417 49426

Sigue COSMOS 1367 DEB en tiempo real con AllMySat

Download on the App Store